Altus AFB, OK

6:52 PM CDT on October 14, 2019 (GMT -0500)
Altus Air Force Base

Weather History for KLTS - August, 2019

Change the Weather History Date:

Thursday, August 22, 2019

  Actual Average Record
Temperature  
Mean Temperature 84 °F -  
Max Temperature 95 °F 94 °F 106 °F (2011)
Min Temperature 72 °F 70 °F 57 °F (2016)
Cooling Degree Days 18    
Growing Degree Days 34 (Base 50)    
Moisture  
Dew Point 65 °F    
Average Humidity 60    
Maximum Humidity 88    
Minimum Humidity 34    
Precipitation  
Precipitation 0.00 in - - ()
Sea Level Pressure  
Sea Level Pressure 29.86 in    
Wind  
Wind Speed 6 mph ()    
Max Wind Speed 20 mph    
Max Gust Speed 28 mph    
Visibility 10.0 miles    
Events      
Averages and records for this station are not official NWS values.
T = Trace of Precipitation, MM = Missing Value Source: Averaged Metar Reports

Daily Weather History Graph

Daily Weather History Graph

Search for Another Location

Airport or City:

Astronomy

Aug. 22, 2019 Rise Set
Actual Time 7:02 AM CDT 8:16 PM CDT
Civil Twilight 6:36 AM CDT 8:42 PM CDT
Nautical Twilight 6:05 AM CDT 9:14 PM CDT
Astronomical Twilight 5:32 AM CDT 9:46 PM CDT
Moon No Moon Rise 1:23 PM CDT (8/22)
Length of Visible Light 14h 06m
Length of Day
13h 14m
Waning Gibbous, 59% of the Moon is Illuminated
Aug 22
Waning Gibbous
Aug 23
Last Quarter
Aug 30
New
Sep 5
First Quarter
Sep 13
Full

Hourly Weather History & Observations

Time (CDT) Temp. Heat Index Dew Point Humidity Pressure Visibility Wind Dir Wind Speed Gust Speed Precip Events Conditions
12:56 AM 76.3 °F - 66.2 °F 71% 29.87 in 10.0 mi SSE 6.9 mph - N/A   Clear
1:56 AM 74.5 °F - 66.7 °F 77% 29.86 in 10.0 mi SE 3.5 mph - N/A   Clear
2:56 AM 73.6 °F - 67.3 °F 81% 29.86 in 10.0 mi Calm Calm - N/A   Clear
3:56 AM 81.9 °F 83.2 °F 63.5 °F 54% 29.87 in 10.0 mi North 8.1 mph - N/A   Scattered Clouds
4:56 AM 77.5 °F - 61.0 °F 57% 29.87 in 10.0 mi NE 10.4 mph - N/A   Partly Cloudy
5:56 AM 76.6 °F - 61.2 °F 59% 29.87 in 10.0 mi ENE 12.7 mph - N/A   Partly Cloudy
6:56 AM 74.8 °F - 61.9 °F 64% 29.88 in 10.0 mi ENE 9.2 mph - N/A   Scattered Clouds
7:56 AM 76.5 °F - 63.0 °F 63% 29.89 in 10.0 mi ENE 6.9 mph - N/A   Mostly Cloudy
8:56 AM 80.6 °F 81.7 °F 61.9 °F 53% 29.90 in 10.0 mi East 8.1 mph - N/A   Mostly Cloudy
9:56 AM 82.8 °F 84.7 °F 65.8 °F 56% 29.91 in 10.0 mi ESE 12.7 mph - N/A   Mostly Cloudy
10:56 AM 85.1 °F 87.4 °F 66.0 °F 53% 29.90 in 10.0 mi ESE 8.1 mph - N/A   Mostly Cloudy
11:56 AM 87.3 °F 88.9 °F 64.6 °F 47% 29.90 in 10.0 mi East 4.6 mph - N/A   Mostly Cloudy
12:56 PM 90.7 °F 92.4 °F 64.4 °F 42% 29.88 in 10.0 mi Calm Calm - N/A   Mostly Cloudy
1:56 PM 92.8 °F 94.7 °F 64.2 °F 39% 29.87 in 10.0 mi NNE 3.5 mph - N/A   Partly Cloudy
2:56 PM 94.1 °F 95.0 °F 63.0 °F 35% 29.85 in 10.0 mi Calm Calm - N/A   Mostly Cloudy
3:56 PM 94.8 °F 95.8 °F 62.1 °F 34% 29.82 in 10.0 mi North 4.6 mph - N/A   Mostly Cloudy
4:56 PM 83.8 °F 86.7 °F 67.5 °F 58% 29.83 in 10.0 mi South 19.6 mph 27.6 mph N/A   Mostly Cloudy
5:56 PM 83.8 °F 87.0 °F 68.4 °F 59% 29.81 in 10.0 mi South 8.1 mph - N/A   Partly Cloudy
6:56 PM 82.9 °F 86.3 °F 68.9 °F 62% 29.81 in 10.0 mi South 6.9 mph - N/A   Mostly Cloudy
7:56 PM 80.6 °F 83.2 °F 67.6 °F 65% 29.82 in 10.0 mi SSE 10.4 mph - N/A   Mostly Cloudy
9:56 PM 75.0 °F - 67.6 °F 78% 29.86 in 10.0 mi SE 4.6 mph - N/A   Clear
10:56 PM 73.6 °F - 68.7 °F 85% 29.87 in 10.0 mi East 3.5 mph - N/A   Clear
11:56 PM 72.5 °F - 68.7 °F 88% 29.87 in 10.0 mi ENE 3.5 mph - N/A   Clear